Torna al catalogo

COSMOS 778

AttivoMilitarePO
NORAD 8419·PAYLOAD·🇷🇺 Russia

Lanciato Nov 4, 1975 da Plesetsk Cosmodrome

Loading…

Prossimi Passaggi (prossime 24 ore)

TLE

AggiornatoSource: Space-Track

Epoca: Sep 14, 2026, 08:49 UTC

1 08419U 75103A   26257.36804464  .00000031  00000-0  16567-4 0  9998
2 08419  82.9724 228.2279 0021119 330.2032 194.1229 13.74856325550849

Traccia COSMOS 778 in tempo reale con AllMySat

Download on the App Store